Time,TemperatureF,DewpointF,PressureIn,WindDirection,WindDirectionDegrees,WindSpeedMPH,WindSpeedGustMPH,Humidity,HourlyPrecipIn,Conditions,Clouds,dailyrainin,SoftwareType,DateUTC
2013-04-26 00:01:00,48.0,47.5,30.00,West,270,0.0,-999.0,98,-99.99,,,0.00,Acu-Link.com,2013-04-26 07:01:00,
2013-04-26 00:17:00,47.8,47.3,30.00,WNW,292,3.2,-999.0,98,-99.99,,,0.00,Acu-Link.com,2013-04-26 07:17:00,
2013-04-26 00:32:00,47.8,47.3,30.01,SSE,157,4.7,-999.0,98,-99.99,,,0.00,Acu-Link.com,2013-04-26 07:32:00,
2013-04-26 00:47:00,47.8,47.3,30.01,West,270,1.7,-999.0,98,-99.99,,,0.00,Acu-Link.com,2013-04-26 07:47:00,
2013-04-26 01:02:00,47.7,47.2,30.01,ESE,112,2.7,-999.0,98,-99.99,,,0.00,Acu-Link.com,2013-04-26 08:02:00,
2013-04-26 01:17:00,47.7,47.2,30.01,WSW,247,1.7,-999.0,98,-99.99,,,0.00,Acu-Link.com,2013-04-26 08:17:00,
2013-04-26 01:32:00,47.7,47.2,30.01,WSW,247,0.0,-999.0,98,-99.99,,,0.00,Acu-Link.com,2013-04-26 08:32:00,
2013-04-26 01:48:00,47.7,47.2,30.01,NNW,337,0.0,-999.0,98,-99.99,,,0.00,Acu-Link.com,2013-04-26 08:48:00,
2013-04-26 02:03:00,47.7,47.2,30.01,North,0,0.0,-999.0,98,-99.99,,,0.00,Acu-Link.com,2013-04-26 09:03:00,
2013-04-26 02:18:00,47.8,47.3,30.01,WNW,292,1.1,-999.0,98,-99.99,,,0.00,Acu-Link.com,2013-04-26 09:18:00,
2013-04-26 02:34:00,47.7,47.2,30.00,ESE,112,3.2,-999.0,98,-99.99,,,0.00,Acu-Link.com,2013-04-26 09:34:00,
2013-04-26 02:49:00,47.7,47.2,30.01,SW,225,1.7,-999.0,98,-99.99,,,0.00,Acu-Link.com,2013-04-26 09:49:00,
2013-04-26 03:04:00,47.7,47.2,30.01,SW,225,2.7,-999.0,98,-99.99,,,0.00,Acu-Link.com,2013-04-26 10:04:00,
2013-04-26 03:20:00,47.7,47.2,30.01,NNW,337,0.0,-999.0,98,-99.99,,,0.00,Acu-Link.com,2013-04-26 10:20:00,
2013-04-26 03:35:00,47.7,47.2,30.02,West,270,0.0,-999.0,98,-99.99,,,0.00,Acu-Link.com,2013-04-26 10:35:00,
2013-04-26 03:50:00,47.5,47.0,30.02,WSW,247,3.7,-999.0,98,-99.99,,,0.00,Acu-Link.com,2013-04-26 10:50:00,
2013-04-26 04:05:00,47.5,47.0,30.02,SSW,202,0.0,-999.0,98,-99.99,,,0.00,Acu-Link.com,2013-04-26 11:05:00,
2013-04-26 04:20:00,47.7,47.2,30.02,NW,315,0.0,-999.0,98,-99.99,,,0.00,Acu-Link.com,2013-04-26 11:20:00,
2013-04-26 04:36:00,47.7,47.2,30.03,West,270,0.0,-999.0,98,-99.99,,,0.00,Acu-Link.com,2013-04-26 11:36:00,
2013-04-26 04:51:00,47.7,47.2,30.03,West,270,2.2,-999.0,98,-99.99,,,0.00,Acu-Link.com,2013-04-26 11:51:00,
2013-04-26 05:06:00,47.8,47.3,30.03,West,270,2.7,-999.0,98,-99.99,,,0.00,Acu-Link.com,2013-04-26 12:06:00,
2013-04-26 05:22:00,47.7,47.2,30.03,NNE,22,0.0,-999.0,98,-99.99,,,0.00,Acu-Link.com,2013-04-26 12:22:00,
2013-04-26 05:37:00,47.7,47.2,30.03,WSW,247,0.0,-999.0,98,-99.99,,,0.00,Acu-Link.com,2013-04-26 12:37:00,
2013-04-26 05:52:00,47.5,47.0,30.04,West,270,1.7,-999.0,98,-99.99,,,0.00,Acu-Link.com,2013-04-26 12:52:00,
2013-04-26 06:07:00,47.5,47.0,30.03,West,270,1.1,-999.0,98,-99.99,,,0.00,Acu-Link.com,2013-04-26 13:07:00,
2013-04-26 06:22:00,47.5,47.0,30.03,WSW,247,2.2,-999.0,98,-99.99,,,0.00,Acu-Link.com,2013-04-26 13:22:00,
2013-04-26 06:38:00,47.5,47.0,30.04,WNW,292,0.0,-999.0,98,-99.99,,,0.00,Acu-Link.com,2013-04-26 13:38:00,
2013-04-26 06:53:00,47.7,47.2,30.04,North,0,0.0,-999.0,98,-99.99,,,0.00,Acu-Link.com,2013-04-26 13:53:00,
2013-04-26 07:08:00,48.0,47.5,30.04,North,0,0.0,-999.0,98,-99.99,,,0.00,Acu-Link.com,2013-04-26 14:08:00,
2013-04-26 07:24:00,48.0,47.5,30.05,West,270,0.0,-999.0,98,-99.99,,,0.00,Acu-Link.com,2013-04-26 14:24:00,
2013-04-26 07:39:00,48.2,47.7,30.05,NNE,22,0.0,-999.0,98,-99.99,,,0.00,Acu-Link.com,2013-04-26 14:39:00,
2013-04-26 07:54:00,48.6,48.1,30.06,West,270,0.0,-999.0,98,-99.99,,,0.00,Acu-Link.com,2013-04-26 14:54:00,
2013-04-26 08:10:00,48.9,48.4,30.06,West,270,0.0,-999.0,98,-99.99,,,0.00,Acu-Link.com,2013-04-26 15:10:00,
2013-04-26 08:25:00,48.9,48.4,30.05,NNW,337,0.0,-999.0,98,-99.99,,,0.00,Acu-Link.com,2013-04-26 15:25:00,
2013-04-26 08:40:00,49.1,48.6,30.05,NE,45,0.0,-999.0,98,-99.99,,,0.00,Acu-Link.com,2013-04-26 15:40:00,
2013-04-26 08:55:00,49.1,48.6,30.05,WNW,292,0.0,-999.0,98,-99.99,,,0.00,Acu-Link.com,2013-04-26 15:55:00,
2013-04-26 09:11:00,49.5,49.0,30.05,SSW,202,2.7,-999.0,98,-99.99,,,0.00,Acu-Link.com,2013-04-26 16:11:00,
2013-04-26 09:26:00,51.6,51.1,30.05,East,90,3.2,-999.0,98,-99.99,,,0.00,Acu-Link.com,2013-04-26 16:26:00,
2013-04-26 09:41:00,52.2,51.7,30.05,ESE,112,3.7,-999.0,98,-99.99,,,0.00,Acu-Link.com,2013-04-26 16:41:00,
2013-04-26 09:57:00,52.0,51.5,30.05,West,270,0.0,-999.0,98,-99.99,,,0.00,Acu-Link.com,2013-04-26 16:57:00,
2013-04-26 10:12:00,54.9,54.3,30.05,SSW,202,0.0,-999.0,98,-99.99,,,0.00,Acu-Link.com,2013-04-26 17:12:00,
2013-04-26 10:27:00,55.6,55.0,30.06,West,270,2.2,-999.0,98,-99.99,,,0.00,Acu-Link.com,2013-04-26 17:27:00,
2013-04-26 10:42:00,56.8,56.2,30.06,WNW,292,4.7,-999.0,98,-99.99,,,0.00,Acu-Link.com,2013-04-26 17:42:00,
2013-04-26 10:58:00,56.5,55.9,30.06,WNW,292,1.7,-999.0,98,-99.99,,,0.00,Acu-Link.com,2013-04-26 17:58:00,
2013-04-26 11:13:00,57.0,56.4,30.06,NE,45,4.2,-999.0,98,-99.99,,,0.00,Acu-Link.com,2013-04-26 18:13:00,
2013-04-26 11:28:00,59.2,58.6,30.07,NNW,337,2.7,-999.0,98,-99.99,,,0.00,Acu-Link.com,2013-04-26 18:28:00,
2013-04-26 11:44:00,58.3,57.7,30.06,NNE,22,4.2,-999.0,98,-99.99,,,0.00,Acu-Link.com,2013-04-26 18:44:00,
2013-04-26 11:59:00,58.6,58.0,30.06,SSW,202,0.0,-999.0,98,-99.99,,,0.00,Acu-Link.com,2013-04-26 18:59:00,
2013-04-26 12:14:00,59.7,51.4,30.07,West,270,3.7,-999.0,74,-99.99,,,0.00,Acu-Link.com,2013-04-26 19:14:00,
2013-04-26 12:29:00,59.9,53.0,30.08,WSW,247,8.3,-999.0,78,-99.99,,,0.00,Acu-Link.com,2013-04-26 19:29:00,
2013-04-26 12:45:00,59.5,32.5,30.08,WNW,292,4.7,-999.0,36,-99.99,,,0.00,Acu-Link.com,2013-04-26 19:45:00,
2013-04-26 13:00:00,61.2,-40.1,30.07,West,270,1.7,-999.0,1,-99.99,,,0.00,Acu-Link.com,2013-04-26 20:00:00,
2013-04-26 13:15:00,60.8,-40.4,30.07,West,270,1.7,-999.0,1,-99.99,,,0.00,Acu-Link.com,2013-04-26 20:15:00,
2013-04-26 13:30:00,61.7,-39.8,30.07,WNW,292,2.7,-999.0,1,-99.99,,,0.00,Acu-Link.com,2013-04-26 20:30:00,
2013-04-26 14:01:00,64.2,-38.3,30.06,WSW,247,4.2,-999.0,1,-99.99,,,0.00,Acu-Link.com,2013-04-26 21:01:00,
2013-04-26 14:16:00,64.9,-37.9,30.06,NW,315,2.2,-999.0,1,-99.99,,,0.00,Acu-Link.com,2013-04-26 21:16:00,
2013-04-26 14:31:00,62.8,-39.2,30.07,NW,315,4.7,-999.0,1,-99.99,,,0.00,Acu-Link.com,2013-04-26 21:31:00,
2013-04-26 14:46:00,60.8,-40.4,30.07,WNW,292,5.8,-999.0,1,-99.99,,,0.00,Acu-Link.com,2013-04-26 21:46:00,
2013-04-26 15:02:00,61.9,-39.7,30.07,SSW,202,4.2,-999.0,1,-99.99,,,0.00,Acu-Link.com,2013-04-26 22:02:00,
2013-04-26 15:17:00,62.2,-39.5,30.06,West,270,4.7,-999.0,1,-99.99,,,0.00,Acu-Link.com,2013-04-26 22:17:00,
2013-04-26 15:32:00,60.4,-40.6,30.06,SW,225,5.3,-999.0,1,-99.99,,,0.00,Acu-Link.com,2013-04-26 22:32:00,
2013-04-26 15:48:00,58.3,-41.9,30.06,WNW,292,2.7,-999.0,1,-99.99,,,0.00,Acu-Link.com,2013-04-26 22:48:00,
2013-04-26 16:03:00,57.4,-42.4,30.06,West,270,4.2,-999.0,1,-99.99,,,0.00,Acu-Link.com,2013-04-26 23:03:00,
2013-04-26 16:18:00,57.6,-42.3,30.06,SSW,202,3.7,-999.0,1,-99.99,,,0.00,Acu-Link.com,2013-04-26 23:18:00,
2013-04-26 16:34:00,58.5,-41.8,30.05,West,270,3.2,-999.0,1,-99.99,,,0.00,Acu-Link.com,2013-04-26 23:34:00,
2013-04-26 16:49:00,59.2,-41.3,30.05,NNW,337,4.7,-999.0,1,-99.99,,,0.00,Acu-Link.com,2013-04-26 23:49:00,
2013-04-26 17:19:00,59.4,-41.2,30.05,SSW,202,0.0,-999.0,1,-99.99,,,0.00,Acu-Link.com,2013-04-27 00:19:00,
2013-04-26 17:35:00,59.0,-41.5,30.04,WSW,247,2.2,-999.0,1,-99.99,,,0.00,Acu-Link.com,2013-04-27 00:35:00,
2013-04-26 17:50:00,58.5,-41.8,30.05,West,270,4.2,-999.0,1,-99.99,,,0.00,Acu-Link.com,2013-04-27 00:50:00,
2013-04-26 18:05:00,57.6,-42.3,30.05,WSW,247,4.7,-999.0,1,-99.99,,,0.00,Acu-Link.com,2013-04-27 01:05:00,
2013-04-26 18:20:00,57.9,-42.1,30.05,NW,315,0.0,-999.0,1,-99.99,,,0.00,Acu-Link.com,2013-04-27 01:20:00,
2013-04-26 18:36:00,58.1,-42.0,30.05,WNW,292,2.2,-999.0,1,-99.99,,,0.00,Acu-Link.com,2013-04-27 01:36:00,
2013-04-26 18:51:00,59.4,-41.2,30.05,SW,225,1.1,-999.0,1,-99.99,,,0.00,Acu-Link.com,2013-04-27 01:51:00,
2013-04-26 19:06:00,58.8,-41.6,30.04,West,270,3.2,-999.0,1,-99.99,,,0.00,Acu-Link.com,2013-04-27 02:06:00,
2013-04-26 19:21:00,56.3,13.4,30.04,SSW,202,0.0,-999.0,18,-99.99,,,0.00,Acu-Link.com,2013-04-27 02:21:00,
2013-04-26 19:36:00,54.7,38.4,30.04,SSW,202,0.0,-999.0,54,-99.99,,,0.00,Acu-Link.com,2013-04-27 02:36:00,
2013-04-26 19:52:00,53.6,53.0,30.03,West,270,0.0,-999.0,98,-99.99,,,0.00,Acu-Link.com,2013-04-27 02:52:00,
2013-04-26 20:07:00,51.6,51.1,30.03,SSE,157,0.0,-999.0,98,-99.99,,,0.00,Acu-Link.com,2013-04-27 03:07:00,
2013-04-26 20:22:00,50.0,49.5,30.03,SSE,157,0.0,-999.0,98,-99.99,,,0.00,Acu-Link.com,2013-04-27 03:22:00,
2013-04-26 20:38:00,48.4,47.9,30.03,SSE,157,0.0,-999.0,98,-99.99,,,0.00,Acu-Link.com,2013-04-27 03:38:00,
2013-04-26 20:53:00,47.3,46.8,30.03,SSE,157,0.0,-999.0,98,-99.99,,,0.00,Acu-Link.com,2013-04-27 03:53:00,
2013-04-26 21:08:00,46.4,45.9,30.04,SSE,157,0.0,-999.0,98,-99.99,,,0.00,Acu-Link.com,2013-04-27 04:08:00,
2013-04-26 21:24:00,45.9,45.4,30.05,SW,225,0.0,-999.0,98,-99.99,,,0.00,Acu-Link.com,2013-04-27 04:24:00,
2013-04-26 21:39:00,45.9,45.4,30.04,SW,225,0.0,-999.0,98,-99.99,,,0.00,Acu-Link.com,2013-04-27 04:39:00,
2013-04-26 21:54:00,46.2,45.7,30.05,SSE,157,0.0,-999.0,98,-99.99,,,0.00,Acu-Link.com,2013-04-27 04:54:00,
2013-04-26 22:10:00,45.9,45.4,30.05,SSE,157,0.0,-999.0,98,-99.99,,,0.00,Acu-Link.com,2013-04-27 05:10:00,
2013-04-26 22:25:00,46.6,46.1,30.05,SSE,157,0.0,-999.0,98,-99.99,,,0.00,Acu-Link.com,2013-04-27 05:25:00,
2013-04-26 22:40:00,46.2,45.7,30.05,SSE,157,0.0,-999.0,98,-99.99,,,0.00,Acu-Link.com,2013-04-27 05:40:00,
2013-04-26 22:56:00,47.5,47.0,30.05,SSE,157,0.0,-999.0,98,-99.99,,,0.00,Acu-Link.com,2013-04-27 05:56:00,
2013-04-26 23:11:00,46.2,45.7,30.04,SSE,157,0.0,-999.0,98,-99.99,,,0.00,Acu-Link.com,2013-04-27 06:11:00,
2013-04-26 23:26:00,46.2,45.7,30.04,SSE,157,0.0,-999.0,98,-99.99,,,0.00,Acu-Link.com,2013-04-27 06:26:00,
2013-04-26 23:41:00,45.7,45.2,30.03,SSE,157,0.0,-999.0,98,-99.99,,,0.00,Acu-Link.com,2013-04-27 06:41:00,
2013-04-26 23:57:00,46.2,45.7,30.03,SE,135,0.0,-999.0,98,-99.99,,,0.00,Acu-Link.com,2013-04-27 06:57:00,